Parkersburg, WV

4:05 PM EDT on May 23, 2017 (GMT -0400)
Wood County Wilson

Weather History for KPKB - May, 2013

Change the Weather History Date:

Monday, May 13, 2013

  Actual Average Record
Temperature  
Mean Temperature 47 °F 61 °F  
Max Temperature 56 °F 73 °F 92 °F (1982)
Min Temperature 37 °F 50 °F 30 °F (1996)
Degree Days  
Heating Degree Days 18 5  
Month to date heating degree days 58 80  
Since 1 July heating degree days 4928 4886  
Cooling Degree Days 0 2  
Month to date cooling degree days 5 15  
Year to date cooling degree days 34 36  
Moisture  
Dew Point 32 °F    
Average Humidity 65    
Maximum Humidity 92    
Minimum Humidity 38    
Precipitation  
Precipitation 0.00 in 0.14 in 1.73 in (1959)
Month to date precipitation 1.46 1.71  
Year to date precipitation 11.29 14.36  
Sea Level Pressure  
Sea Level Pressure 30.18 in    
Wind  
Wind Speed 2 mph (North)    
Max Wind Speed 16 mph    
Max Gust Speed 30 mph    
Visibility 10 miles    
Events      
T = Trace of Precipitation, MM = Missing Value Source: NWS Daily Summary

Daily Weather History Graph

Daily Weather History Graph

Search for Another Location

Airport or City:

Trip Planner

Search our weather history database for the weather conditions in past years. The results will help you decide how hot, cold, wet, or windy it might be!

Date:

Astronomy

May. 13, 2013 Rise Set
Actual Time 6:13 AM EDT 8:30 PM EDT
Civil Twilight 5:43 AM EDT 9:01 PM EDT
Nautical Twilight 5:06 AM EDT 9:38 PM EDT
Astronomical Twilight 4:26 AM EDT 10:19 PM EDT
Moon 8:58 AM EDT (5/13) 11:39 PM EDT (5/13)
Length of Visible Light 15h 17m
Length of Day
14h 17m
Waxing Crescent, 12% of the Moon is Illuminated
May 13
Waxing Crescent
May 18
First Quarter
May 25
Full
May 31
Last Quarter
Jun 8
New

Hourly Weather History & Observations

Time (EDT) Temp. Windchill Dew Point Humidity Pressure Visibility Wind Dir Wind Speed Gust Speed Precip Events Conditions
12:53 AM 42.1 °F - 33.1 °F 70% 30.14 in 10.0 mi Calm Calm - N/A   Overcast
1:53 AM 43.0 °F - 33.1 °F 68% 30.14 in 10.0 mi Calm Calm - N/A   Overcast
2:53 AM 41.0 °F 39.0 °F 33.1 °F 73% 30.13 in 10.0 mi NNW 3.5 mph - N/A   Scattered Clouds
3:53 AM 39.0 °F - 34.0 °F 82% 30.14 in 10.0 mi Calm Calm - N/A   Mostly Cloudy
4:53 AM 37.9 °F - 36.0 °F 93% 30.14 in 10.0 mi Calm Calm - N/A   Overcast
5:53 AM 39.0 °F - 35.1 °F 86% 30.14 in 10.0 mi Calm Calm - N/A   Overcast
6:53 AM 39.0 °F - 35.1 °F 86% 30.16 in 10.0 mi Calm Calm - N/A   Overcast
7:53 AM 42.1 °F - 35.1 °F 76% 30.18 in 10.0 mi Calm Calm - N/A   Overcast
8:53 AM 46.9 °F - 30.9 °F 54% 30.20 in 10.0 mi Calm Calm - N/A   Partly Cloudy
9:53 AM 48.0 °F - 26.1 °F 42% 30.21 in 10.0 mi Variable 3.5 mph - N/A   Overcast
10:53 AM 48.9 °F - 28.0 °F 44% 30.22 in 10.0 mi NNW 3.5 mph - N/A   Overcast
11:53 AM 52.0 °F - 28.9 °F 41% 30.22 in 10.0 mi Variable 3.5 mph - N/A   Partly Cloudy
12:53 PM 50.0 °F - 27.0 °F 41% 30.22 in 10.0 mi East 3.5 mph - N/A   Mostly Cloudy
1:53 PM 51.1 °F - 30.0 °F 44% 30.21 in 10.0 mi WNW 5.8 mph - N/A   Overcast
2:53 PM 53.1 °F - 32.0 °F 45% 30.19 in 10.0 mi NNE 8.1 mph - N/A   Mostly Cloudy
4:53 PM 52.0 °F - 32.0 °F 47% 30.18 in 10.0 mi North 8.1 mph 16.1 mph N/A   Mostly Cloudy
5:53 PM 53.1 °F - 30.0 °F 41% 30.17 in 10.0 mi Calm Calm - N/A   Mostly Cloudy
6:53 PM 55.0 °F - 30.9 °F 40% 30.16 in 10.0 mi ENE 4.6 mph - N/A   Mostly Cloudy
8:53 PM 48.0 °F - 35.1 °F 61% 30.19 in 10.0 mi Calm Calm - N/A   Clear
9:53 PM 43.0 °F - 36.0 °F 76% 30.21 in 10.0 mi Calm Calm - N/A   Clear
10:53 PM 41.0 °F - 37.0 °F 86% 30.22 in 10.0 mi Calm Calm - N/A   Clear
11:53 PM 39.0 °F - 36.0 °F 89% 30.21 in 7.0 mi Calm Calm - N/A   Clear